Time,TemperatureF,DewpointF,PressureIn,WindDirection,WindDirectionDegrees,WindSpeedMPH,WindSpeedGustMPH,Humidity,HourlyPrecipIn,Conditions,Clouds,dailyrainin,SoftwareType,DateUTC
2013-03-03 00:02:00,27.0,15.0,30.17,NW,325,1.0,4.0,60,-99.99,,,-99.99,,2013-03-03 06:02:00,
2013-03-03 00:11:00,27.0,15.0,30.16,NNW,330,1.0,4.0,61,-99.99,,,-99.99,,2013-03-03 06:11:00,
2013-03-03 00:21:00,27.0,15.0,30.16,NNW,330,1.0,4.0,61,-99.99,,,-99.99,,2013-03-03 06:21:00,
2013-03-03 00:32:00,26.0,15.0,30.16,NNW,340,2.0,4.0,62,-99.99,,,-99.99,,2013-03-03 06:32:00,
2013-03-03 00:42:00,26.0,15.0,30.16,North,355,2.0,4.0,62,-99.99,,,-99.99,,2013-03-03 06:42:00,
2013-03-03 00:52:00,26.0,15.0,30.16,NW,320,3.0,4.0,63,-99.99,,,-99.99,,2013-03-03 06:52:00,
2013-03-03 01:01:00,26.0,15.0,30.16,NW,320,3.0,4.0,63,-99.99,,,-99.99,,2013-03-03 07:01:00,
2013-03-03 01:11:00,25.0,14.0,30.17,North,0,3.0,6.0,63,-99.99,,,-99.99,,2013-03-03 07:11:00,
2013-03-03 01:21:00,25.0,14.0,30.17,North,0,3.0,6.0,63,-99.99,,,-99.99,,2013-03-03 07:21:00,
2013-03-03 01:31:00,25.0,14.0,30.17,NNW,330,3.0,7.0,64,-99.99,,,-99.99,,2013-03-03 07:31:00,
2013-03-03 01:42:00,25.0,14.0,30.16,NNW,340,2.0,4.0,64,-99.99,,,-99.99,,2013-03-03 07:42:00,
2013-03-03 01:51:00,25.0,14.0,30.16,NNW,340,2.0,4.0,64,-99.99,,,-99.99,,2013-03-03 07:51:00,
2013-03-03 02:01:00,25.0,14.0,30.16,NW,315,1.0,3.0,64,-99.99,,,-99.99,,2013-03-03 08:01:00,
2013-03-03 02:11:00,24.0,14.0,30.16,NW,305,3.0,4.0,65,-99.99,,,-99.99,,2013-03-03 08:11:00,
2013-03-03 02:21:00,24.0,14.0,30.16,NW,305,3.0,4.0,65,-99.99,,,-99.99,,2013-03-03 08:21:00,
2013-03-03 02:31:00,24.0,14.0,30.16,NW,320,2.0,4.0,66,-99.99,,,-99.99,,2013-03-03 08:31:00,
2013-03-03 02:41:00,24.0,15.0,30.16,NW,320,2.0,6.0,67,-99.99,,,-99.99,,2013-03-03 08:41:00,
2013-03-03 02:53:00,23.0,14.0,30.16,NW,315,3.0,5.0,67,-99.99,,,-99.99,,2013-03-03 08:53:00,
2013-03-03 03:01:00,23.0,14.0,30.16,NW,315,3.0,5.0,67,-99.99,,,-99.99,,2013-03-03 09:01:00,
2013-03-03 03:11:00,23.0,14.0,30.16,NW,325,3.0,5.0,68,-99.99,,,-99.99,,2013-03-03 09:11:00,
2013-03-03 03:21:00,23.0,14.0,30.16,NW,325,3.0,5.0,68,-99.99,,,-99.99,,2013-03-03 09:21:00,
2013-03-03 03:32:00,23.0,14.0,30.15,NW,325,3.0,6.0,69,-99.99,,,-99.99,,2013-03-03 09:32:00,
2013-03-03 03:41:00,23.0,14.0,30.15,NW,315,3.0,6.0,69,-99.99,,,-99.99,,2013-03-03 09:41:00,
2013-03-03 03:51:00,23.0,14.0,30.15,NW,315,3.0,6.0,69,-99.99,,,-99.99,,2013-03-03 09:51:00,
2013-03-03 04:01:00,23.0,14.0,30.14,WNW,300,3.0,4.0,69,-99.99,,,-99.99,,2013-03-03 10:01:00,
2013-03-03 04:11:00,22.0,14.0,30.14,NW,310,2.0,4.0,69,-99.99,,,-99.99,,2013-03-03 10:11:00,
2013-03-03 04:21:00,22.0,14.0,30.14,NW,310,2.0,4.0,69,-99.99,,,-99.99,,2013-03-03 10:21:00,
2013-03-03 04:32:00,22.0,14.0,30.14,NW,310,2.0,5.0,69,-99.99,,,-99.99,,2013-03-03 10:32:00,
2013-03-03 04:42:00,22.0,14.0,30.14,WNW,300,2.0,4.0,70,-99.99,,,-99.99,,2013-03-03 10:42:00,
2013-03-03 04:52:00,22.0,14.0,30.14,NW,320,2.0,4.0,70,-99.99,,,-99.99,,2013-03-03 10:52:00,
2013-03-03 05:01:00,22.0,14.0,30.14,NW,320,2.0,4.0,70,-99.99,,,-99.99,,2013-03-03 11:01:00,
2013-03-03 05:11:00,22.0,14.0,30.13,NW,310,1.0,4.0,71,-99.99,,,-99.99,,2013-03-03 11:11:00,
2013-03-03 05:21:00,22.0,14.0,30.13,NW,310,1.0,4.0,71,-99.99,,,-99.99,,2013-03-03 11:21:00,
2013-03-03 05:32:00,21.0,13.0,30.14,South,180,0.0,1.0,71,-99.99,,,-99.99,,2013-03-03 11:32:00,
2013-03-03 05:42:00,21.0,13.0,30.14,WNW,290,1.0,3.0,72,-99.99,,,-99.99,,2013-03-03 11:42:00,
2013-03-03 05:52:00,21.0,14.0,30.14,North,355,0.0,2.0,73,-99.99,,,-99.99,,2013-03-03 11:52:00,
2013-03-03 06:01:00,21.0,14.0,30.14,North,355,0.0,2.0,73,-99.99,,,-99.99,,2013-03-03 12:01:00,
2013-03-03 06:11:00,21.0,14.0,30.14,NW,325,0.0,2.0,74,-99.99,,,-99.99,,2013-03-03 12:11:00,
2013-03-03 06:21:00,21.0,14.0,30.14,NW,325,0.0,2.0,74,-99.99,,,-99.99,,2013-03-03 12:21:00,
2013-03-03 06:32:00,20.0,14.0,30.13,WNW,295,0.0,2.0,74,-99.99,,,-99.99,,2013-03-03 12:32:00,
2013-03-03 06:43:00,21.0,14.0,30.14,NNW,335,1.0,3.0,74,-99.99,,,-99.99,,2013-03-03 12:43:00,
2013-03-03 06:52:00,21.0,14.0,30.14,NNW,335,1.0,3.0,74,-99.99,,,-99.99,,2013-03-03 12:52:00,
2013-03-03 07:01:00,21.0,14.0,30.15,WNW,285,1.0,2.0,75,-99.99,,,-99.99,,2013-03-03 13:01:00,
2013-03-03 07:11:00,20.0,6.0,30.14,West,260,0.0,3.0,53,-99.99,,,-99.99,,2013-03-03 13:11:00,
2013-03-03 07:22:00,20.0,6.0,30.14,West,260,0.0,3.0,53,-99.99,,,-99.99,,2013-03-03 13:22:00,
2013-03-03 07:32:00,20.0,-99.9,30.14,SW,220,1.0,2.0,-999,-99.99,,,-99.99,,2013-03-03 13:32:00,
2013-03-03 07:42:00,20.0,-99.9,30.14,SSW,210,0.0,2.0,-999,-99.99,,,-99.99,,2013-03-03 13:42:00,
2013-03-03 07:52:00,20.0,-99.9,30.14,SSW,210,0.0,2.0,-999,-99.99,,,-99.99,,2013-03-03 13:52:00,
2013-03-03 08:02:00,22.0,15.0,30.15,North,350,1.0,2.0,75,-99.99,,,-99.99,,2013-03-03 14:02:00,
2013-03-03 08:11:00,22.0,15.0,30.14,North,5,1.0,5.0,74,-99.99,,,-99.99,,2013-03-03 14:11:00,
2013-03-03 08:21:00,22.0,15.0,30.14,North,5,1.0,5.0,74,-99.99,,,-99.99,,2013-03-03 14:21:00,
2013-03-03 08:32:00,23.0,15.0,30.14,NNW,335,0.0,3.0,70,-99.99,,,-99.99,,2013-03-03 14:32:00,
2013-03-03 08:42:00,24.0,-99.9,30.14,West,275,2.0,5.0,-999,-99.99,,,-99.99,,2013-03-03 14:42:00,
2013-03-03 08:52:00,24.0,-99.9,30.14,West,275,2.0,5.0,-999,-99.99,,,-99.99,,2013-03-03 14:52:00,
2013-03-03 09:01:00,25.0,15.0,30.14,WNW,295,1.0,2.0,66,-99.99,,,-99.99,,2013-03-03 15:01:00,
2013-03-03 09:11:00,26.0,16.0,30.14,NNW,330,0.0,2.0,65,-99.99,,,-99.99,,2013-03-03 15:11:00,
2013-03-03 09:22:00,26.0,16.0,30.14,NNW,330,0.0,2.0,65,-99.99,,,-99.99,,2013-03-03 15:22:00,
2013-03-03 09:32:00,27.0,16.0,30.14,NW,320,2.0,4.0,61,-99.99,,,-99.99,,2013-03-03 15:32:00,
2013-03-03 09:42:00,27.0,15.0,30.14,West,275,1.0,5.0,58,-99.99,,,-99.99,,2013-03-03 15:42:00,
2013-03-03 09:52:00,27.0,15.0,30.14,West,275,1.0,5.0,58,-99.99,,,-99.99,,2013-03-03 15:52:00,
2013-03-03 10:01:00,29.0,16.0,30.15,SW,225,2.0,3.0,57,-99.99,,,-99.99,,2013-03-03 16:01:00,
2013-03-03 10:12:00,29.0,16.0,30.14,SSW,210,3.0,5.0,56,-99.99,,,-99.99,,2013-03-03 16:12:00,
2013-03-03 10:22:00,29.0,16.0,30.14,SSW,210,3.0,5.0,56,-99.99,,,-99.99,,2013-03-03 16:22:00,
2013-03-03 10:32:00,31.0,17.0,30.15,SW,215,1.0,5.0,54,-99.99,,,-99.99,,2013-03-03 16:32:00,
2013-03-03 10:42:00,31.0,15.0,30.14,NW,310,3.0,5.0,51,-99.99,,,-99.99,,2013-03-03 16:42:00,
2013-03-03 10:52:00,31.0,15.0,30.14,NW,310,3.0,5.0,51,-99.99,,,-99.99,,2013-03-03 16:52:00,
2013-03-03 11:01:00,33.0,16.0,30.14,NNW,335,3.0,6.0,49,-99.99,,,-99.99,,2013-03-03 17:01:00,
2013-03-03 11:11:00,33.0,15.0,30.14,NW,325,2.0,5.0,47,-99.99,,,-99.99,,2013-03-03 17:11:00,
2013-03-03 11:22:00,33.0,15.0,30.14,NW,325,2.0,5.0,47,-99.99,,,-99.99,,2013-03-03 17:22:00,
2013-03-03 11:32:00,33.0,15.0,30.13,SSE,150,1.0,5.0,47,-99.99,,,-99.99,,2013-03-03 17:32:00,
2013-03-03 11:42:00,35.0,17.0,30.13,SE,125,3.0,6.0,47,-99.99,,,-99.99,,2013-03-03 17:42:00,
2013-03-03 11:52:00,35.0,17.0,30.13,SE,125,3.0,6.0,47,-99.99,,,-99.99,,2013-03-03 17:52:00,
2013-03-03 12:02:00,35.0,16.0,30.12,ENE,65,4.0,6.0,44,-99.99,,,-99.99,,2013-03-03 18:02:00,
2013-03-03 12:11:00,35.0,14.0,30.12,SW,230,3.0,6.0,42,-99.99,,,-99.99,,2013-03-03 18:11:00,
2013-03-03 12:21:00,35.0,14.0,30.12,SW,230,3.0,6.0,42,-99.99,,,-99.99,,2013-03-03 18:21:00,
2013-03-03 12:32:00,36.0,15.0,30.11,SW,235,1.0,6.0,43,-99.99,,,-99.99,,2013-03-03 18:32:00,
2013-03-03 12:42:00,36.0,16.0,30.11,SSE,150,2.0,6.0,43,-99.99,,,-99.99,,2013-03-03 18:42:00,
2013-03-03 12:52:00,36.0,16.0,30.11,SSE,150,2.0,6.0,43,-99.99,,,-99.99,,2013-03-03 18:52:00,
2013-03-03 13:02:00,37.0,15.0,30.10,WNW,285,4.0,6.0,40,-99.99,,,-99.99,,2013-03-03 19:02:00,
2013-03-03 13:11:00,36.0,14.0,30.10,SSW,205,4.0,7.0,40,-99.99,,,-99.99,,2013-03-03 19:11:00,
2013-03-03 13:22:00,36.0,14.0,30.10,SSW,205,4.0,7.0,40,-99.99,,,-99.99,,2013-03-03 19:22:00,
2013-03-03 13:32:00,36.0,14.0,30.08,SW,215,5.0,9.0,41,-99.99,,,-99.99,,2013-03-03 19:32:00,
2013-03-03 13:42:00,36.0,16.0,30.08,South,190,4.0,10.0,44,-99.99,,,-99.99,,2013-03-03 19:42:00,
2013-03-03 13:52:00,36.0,16.0,30.08,South,190,4.0,10.0,44,-99.99,,,-99.99,,2013-03-03 19:52:00,
2013-03-03 14:01:00,37.0,17.0,30.07,SSW,200,4.0,11.0,45,-99.99,,,-99.99,,2013-03-03 20:01:00,
2013-03-03 14:11:00,36.0,17.0,30.07,South,185,4.0,7.0,45,-99.99,,,-99.99,,2013-03-03 20:11:00,
2013-03-03 14:21:00,36.0,17.0,30.07,South,185,4.0,7.0,45,-99.99,,,-99.99,,2013-03-03 20:21:00,
2013-03-03 14:32:00,36.0,17.0,30.07,SSW,200,5.0,9.0,44,-99.99,,,-99.99,,2013-03-03 20:32:00,
2013-03-03 14:42:00,37.0,16.0,30.06,SE,130,3.0,9.0,42,-99.99,,,-99.99,,2013-03-03 20:42:00,
2013-03-03 14:52:00,37.0,16.0,30.06,SE,130,3.0,9.0,42,-99.99,,,-99.99,,2013-03-03 20:52:00,
2013-03-03 15:02:00,38.0,16.0,30.05,WSW,250,5.0,8.0,39,-99.99,,,-99.99,,2013-03-03 21:02:00,
2013-03-03 15:11:00,38.0,15.0,30.05,SE,125,1.0,7.0,39,-99.99,,,-99.99,,2013-03-03 21:11:00,
2013-03-03 15:22:00,38.0,15.0,30.05,SE,125,1.0,7.0,39,-99.99,,,-99.99,,2013-03-03 21:22:00,
2013-03-03 15:32:00,39.0,16.0,30.04,South,175,2.0,7.0,40,-99.99,,,-99.99,,2013-03-03 21:32:00,
2013-03-03 15:42:00,39.0,15.0,30.04,SSW,195,5.0,8.0,38,-99.99,,,-99.99,,2013-03-03 21:42:00,
2013-03-03 15:52:00,40.0,16.0,30.03,South,170,3.0,6.0,38,-99.99,,,-99.99,,2013-03-03 21:52:00,
2013-03-03 16:01:00,40.0,16.0,30.03,South,170,3.0,6.0,38,-99.99,,,-99.99,,2013-03-03 22:01:00,
2013-03-03 16:11:00,39.0,16.0,30.03,SE,135,4.0,8.0,38,-99.99,,,-99.99,,2013-03-03 22:11:00,
2013-03-03 16:22:00,39.0,16.0,30.03,SE,135,4.0,8.0,38,-99.99,,,-99.99,,2013-03-03 22:22:00,
2013-03-03 16:32:00,39.0,12.0,30.02,South,185,3.0,9.0,32,-99.99,,,-99.99,,2013-03-03 22:32:00,
2013-03-03 16:42:00,40.0,14.0,30.02,SSW,210,2.0,8.0,34,-99.99,,,-99.99,,2013-03-03 22:42:00,
2013-03-03 16:52:00,40.0,14.0,30.02,SSW,210,2.0,8.0,34,-99.99,,,-99.99,,2013-03-03 22:52:00,
2013-03-03 17:01:00,39.0,14.0,30.02,SW,220,3.0,6.0,35,-99.99,,,-99.99,,2013-03-03 23:01:00,
2013-03-03 17:11:00,39.0,14.0,30.02,SW,230,4.0,9.0,36,-99.99,,,-99.99,,2013-03-03 23:11:00,
2013-03-03 17:21:00,39.0,14.0,30.02,SW,230,4.0,9.0,36,-99.99,,,-99.99,,2013-03-03 23:21:00,
2013-03-03 17:32:00,39.0,17.0,30.02,South,170,1.0,5.0,40,-99.99,,,-99.99,,2013-03-03 23:32:00,
2013-03-03 17:42:00,39.0,16.0,30.02,SSE,160,4.0,8.0,39,-99.99,,,-99.99,,2013-03-03 23:42:00,
2013-03-03 17:52:00,39.0,16.0,30.02,SSE,160,4.0,8.0,39,-99.99,,,-99.99,,2013-03-03 23:52:00,
2013-03-03 18:01:00,39.0,15.0,30.02,SSE,160,2.0,5.0,37,-99.99,,,-99.99,,2013-03-04 00:01:00,
2013-03-03 18:11:00,39.0,15.0,30.02,SSE,160,2.0,5.0,36,-99.99,,,-99.99,,2013-03-04 00:11:00,
2013-03-03 18:21:00,39.0,15.0,30.02,SSE,160,2.0,5.0,36,-99.99,,,-99.99,,2013-03-04 00:21:00,
2013-03-03 18:32:00,39.0,18.0,30.02,SSE,160,4.0,9.0,42,-99.99,,,-99.99,,2013-03-04 00:32:00,
2013-03-03 18:42:00,38.0,19.0,30.02,SSE,155,5.0,11.0,45,-99.99,,,-99.99,,2013-03-04 00:42:00,
2013-03-03 18:52:00,38.0,19.0,30.02,SSE,155,5.0,11.0,45,-99.99,,,-99.99,,2013-03-04 00:52:00,
2013-03-03 19:01:00,38.0,19.0,30.01,SE,145,4.0,9.0,46,-99.99,,,-99.99,,2013-03-04 01:01:00,
2013-03-03 19:11:00,38.0,19.0,30.01,SSE,150,5.0,10.0,46,-99.99,,,-99.99,,2013-03-04 01:11:00,
2013-03-03 19:21:00,38.0,19.0,30.01,SSE,150,5.0,10.0,46,-99.99,,,-99.99,,2013-03-04 01:21:00,
2013-03-03 19:32:00,38.0,18.0,30.01,SE,130,5.0,10.0,45,-99.99,,,-99.99,,2013-03-04 01:32:00,
2013-03-03 19:42:00,38.0,18.0,30.01,SE,145,5.0,12.0,45,-99.99,,,-99.99,,2013-03-04 01:42:00,
2013-03-03 19:51:00,38.0,19.0,30.01,SE,125,3.0,9.0,46,-99.99,,,-99.99,,2013-03-04 01:51:00,
2013-03-03 20:01:00,38.0,19.0,30.01,SE,125,3.0,9.0,46,-99.99,,,-99.99,,2013-03-04 02:01:00,
2013-03-03 20:11:00,38.0,18.0,30.01,SSE,165,5.0,8.0,45,-99.99,,,-99.99,,2013-03-04 02:11:00,
2013-03-03 20:22:00,38.0,18.0,30.01,SSE,165,5.0,8.0,45,-99.99,,,-99.99,,2013-03-04 02:22:00,
2013-03-03 20:32:00,37.0,19.0,30.01,SE,145,3.0,9.0,46,-99.99,,,-99.99,,2013-03-04 02:32:00,
2013-03-03 20:42:00,37.0,19.0,30.01,South,175,3.0,11.0,47,-99.99,,,-99.99,,2013-03-04 02:42:00,
2013-03-03 20:52:00,37.0,19.0,30.01,SE,145,4.0,7.0,48,-99.99,,,-99.99,,2013-03-04 02:52:00,
2013-03-03 21:02:00,37.0,19.0,30.01,SE,145,4.0,7.0,48,-99.99,,,-99.99,,2013-03-04 03:02:00,
2013-03-03 21:11:00,37.0,19.0,30.00,SSE,165,3.0,9.0,48,-99.99,,,-99.99,,2013-03-04 03:11:00,
2013-03-03 21:21:00,37.0,19.0,30.00,SSE,165,3.0,9.0,48,-99.99,,,-99.99,,2013-03-04 03:21:00,
2013-03-03 21:32:00,37.0,20.0,30.00,SSE,150,3.0,7.0,49,-99.99,,,-99.99,,2013-03-04 03:32:00,
2013-03-03 21:42:00,37.0,20.0,30.00,SSE,150,4.0,7.0,49,-99.99,,,-99.99,,2013-03-04 03:42:00,
2013-03-03 21:52:00,37.0,20.0,30.00,SSE,150,4.0,7.0,49,-99.99,,,-99.99,,2013-03-04 03:52:00,
2013-03-03 22:01:00,37.0,20.0,30.00,SSE,150,5.0,10.0,50,-99.99,,,-99.99,,2013-03-04 04:01:00,
2013-03-03 22:11:00,37.0,20.0,30.00,SSE,150,3.0,7.0,51,-99.99,,,-99.99,,2013-03-04 04:11:00,
2013-03-03 22:22:00,37.0,20.0,30.00,SSE,150,3.0,7.0,51,-99.99,,,-99.99,,2013-03-04 04:22:00,
2013-03-03 22:32:00,37.0,20.0,30.00,South,190,4.0,8.0,51,-99.99,,,-99.99,,2013-03-04 04:32:00,
2013-03-03 22:42:00,37.0,21.0,30.01,South,170,3.0,6.0,51,-99.99,,,-99.99,,2013-03-04 04:42:00,
2013-03-03 22:51:00,37.0,21.0,30.01,South,170,3.0,6.0,51,-99.99,,,-99.99,,2013-03-04 04:51:00,
2013-03-03 23:01:00,37.0,21.0,30.01,SW,220,1.0,9.0,52,-99.99,,,-99.99,,2013-03-04 05:01:00,
2013-03-03 23:11:00,37.0,22.0,30.00,SE,145,4.0,8.0,53,-99.99,,,-99.99,,2013-03-04 05:11:00,
2013-03-03 23:22:00,37.0,22.0,30.00,SE,145,4.0,8.0,53,-99.99,,,-99.99,,2013-03-04 05:22:00,
2013-03-03 23:32:00,37.0,22.0,30.00,SE,125,2.0,7.0,54,-99.99,,,-99.99,,2013-03-04 05:32:00,
2013-03-03 23:42:00,37.0,22.0,30.00,SSE,165,4.0,8.0,54,-99.99,,,-99.99,,2013-03-04 05:42:00,
2013-03-03 23:52:00,37.0,22.0,30.00,SSE,165,4.0,8.0,54,-99.99,,,-99.99,,2013-03-04 05:52:00,